Preview of NWS' New Version of Forecast
This preview is not operational and should not be used for support decisions.

Regional Weather Roundup (RWR)

Issued by National Weather Service (NWS)

                            
000
ASUS45 KCYS 241110
RWRWY 

WYOMING REGIONAL WEATHER ROUNDUP
NATIONAL WEATHER SERVICE CHEYENNE WY
500 AM MDT SUN MAR 24 2019

NOTE:  "FAIR" INDICATES FEW OR NO CLOUDS BELOW 12,000 FEET
WITH NO SIGNIFICANT WEATHER AND/OR OBSTRUCTIONS TO VISIBILITY.

WYZ001-241200-
...YELLOWSTONE NATIONAL PARK...
  
CITY           SKY/WX    TMP DP  RH WIND       PRES   REMARKS
LK YELLOWSTONE   N/A     19  16  88 CALM      30.06S                  
W YELLOWSTONE  NOT AVBL                                               

$$
WYZ002>013-054>058-071-098>099-241200-
...NORTHERN WYOMING...
  
CITY           SKY/WX    TMP DP  RH WIND       PRES   REMARKS
JACKSON        PTCLDY    21  18  88 N5        30.05S WCI  15          
CODY           PTCLDY    33  23  66 S5        30.04R WCI  29          
GREYBULL       CLEAR     33  26  75 SE6       30.00S WCI  28          
WORLAND        PTCLDY    33  26  75 SE3       30.01R                  
SHERIDAN       CLOUDY    38  31  76 S5        30.02R WCI  34          
BUFFALO        CLOUDY    41  28  60 CALM      30.01R                  
GILLETTE       CLOUDY    38  36  92 SW5       30.01R WCI  34          
HULETT         CLOUDY    36  34  93 CALM      30.03R FOG              
NEWCASTLE      CLOUDY    36  36 100 CALM      30.02R                  

$$
WYZ014>020-022>026-101>103-241200-
...CENTRAL WYOMING...
  
CITY           SKY/WX    TMP DP  RH WIND       PRES   REMARKS
BIG PINEY      CLOUDY    21  17  84 CALM      30.06R                  
PINEDALE       MOCLDY    23  23 100 CALM      30.06R                  
DUBOIS         CLOUDY    28  21  74 NW9       30.03S WCI  20          
LANDER         PTCLDY    38  24  57 SW12      30.01S WCI  30          
RIVERTON       CLOUDY    34  27  75 NW8       30.02S WCI  27          
CASPER         PTCLDY    30  28  92 W8        30.03R WCI  22          
DOUGLAS        MOCLDY    34  31  88 W5        30.03R WCI  30          

$$
WYZ021-027>030-104>119-241200-
...SOUTHERN WYOMING...
  
CITY           SKY/WX    TMP DP  RH WIND       PRES   REMARKS
EVANSTON       CLOUDY    32  28  85 E9        30.00F WCI  24          
KEMMERER       CLEAR     28  23  80 N9        30.02S WCI  20          
FORT BRIDGER   CLOUDY    34  30  86 W6        30.06S WCI  29          
ROCK SPRINGS   CLOUDY    30  25  81 SE9       30.04R WCI  22          
DIXON          FAIR      28  23  82 E6        30.10S WCI  22          
RAWLINS        CLEAR     30  25  81 CALM      30.07R                  
SARATOGA       FAIR      23  23 100 S7        30.07S WCI  15          
LARAMIE        CLEAR     23  21  92 SE8       30.04R WCI  14          
CHEYENNE       CLEAR     32  25  75 W7        30.03R WCI  26          
TORRINGTON     CLOUDY    39  39 100 W3        30.02R                  
PINE BLUFFS    FAIR      30  30 100 W7        30.04R WCI  23          

$$